Regional Weather Roundup
Issued by NWS

Home | Current Version | Previous Version | Text Only | Print | Product List | Glossary On
Versions: 1 2 3 4 5 6 7 8 9 10 11 12 13 14 15 16 17 18 19 20 21 22 23 24 25 26 27 28 29 30 31 32 33 34 35 36 37 38 39 40 41 42 43 44 45 46 47 48 49 50
000
ASCA44 KEWX 301920
RWRMX

LATIN AMERICA AND CARIBBEAN REGIONAL WEATHER ROUNDUP
NATIONAL WEATHER SERVICE AUSTIN/SAN ANTONIO TX
200 PM CDT SAT MAY 30 2015

NOTE: "FAIR" INDICATED FEW OR NO CLOUDS BELOW 12,000 FEET WITH NO
SIGNIFICANT WEATHER AND/OR OBSTRUCTIONS TO VISIBILITY.

BAJA CALIFORNIA

CITY           SKY/WX    TMP DP  RH WIND       PRES   REMARKS
LORETO         SUNNY     88  77  70 NE9       29.88S HX 100
LA PAZ         SUNNY     93  50  22 N12       29.88  HX  90
MEXICALI       MOSUNNY   93  39  15 SE9       29.89
S.J. DEL CABO  SUNNY     90  64  43 S17       29.87F HX  91
TIJUANA        MOSUNNY   68  55  64 W9        30.00F

NORTHWESTERN MEXICO

CITY           SKY/WX    TMP DP  RH WIND       PRES   REMARKS
CULIACAN       SUNNY     97  64  34 SW9       29.83  HX  99
DURANGO        SUNNY     79  41  25 S6        30.20
GUAYMAS        SUNNY     93  63  36 S12       29.83  HX  94
HERMOSILLO     SUNNY    100  43  14 S6        29.92  HX  96
CD. JUAREZ     MOSUNNY   84  54  34 SE17      30.11
LOS MOCHIS     SUNNY     91  59  33 SW14      29.86F HX  90
OBREGON        SUNNY     99  50  19 W10       29.83  HX  95

NORTHEASTERN MEXICO

CITY           SKY/WX    TMP DP  RH WIND       PRES   REMARKS
CHIHUAHUA      PTSUNNY   88  46  23 E15       30.11
MATAMOROS      PTSUNNY   86  77  74 SE17      30.01  HX  97
MONCLOVA         N/A    N/A N/A N/A MISG        N/A
MONTERREY      PTSUNNY   84  68  58 SE10      29.98F
NUEVO LAREDO   PTSUNNY   90  70  51 CALM      30.00  HX  95
PIEDRAS NEGRAS CLOUDY    64  64 100 NE12      30.12F
REYNOSA        MOSUNNY   86  72  62 SE8       29.96  HX  92
SALTILLO       MOSUNNY   81  63  54 N9        30.19F
TORREON        MOSUNNY   90  54  29 SE7       30.05F
CD. VICTORIA   CLOUDY    86  68  54 SE6       29.99

WESTERN MEXICO

CITY           SKY/WX    TMP DP  RH WIND       PRES   REMARKS
AGUASCALIENTES PTSUNNY   66  50  55 NE6       30.27
COLIMA         PTSUNNY   81  70  69 SW12      30.00F
DEL BAJIO      CLOUDY    72  57  60 S3        30.28F
GUADALAJARA    CLOUDY    73  55  53 E5        30.17
MANZANILLO     PTSUNNY   84  77  79 S12       29.85S HX  94
MAZATLAN       SUNNY     90  64  43 W18       29.81F HX  91
P. VALLARTA    CLOUDY    86  66  51 SW6       29.86F
URUAPAN        CLOUDY    70  63  78 S9        30.17F
ZACATECAS      PTSUNNY   72  52  49 NE20      30.28F

CENTRAL MEXICO

CITY           SKY/WX    TMP DP  RH WIND       PRES   REMARKS
CUERNAVACA     CLOUDY    79  52  38 SE7       30.13F
MEXICO CITY    CLOUDY    70  48  46 N7        30.28F
MORELIA        PTSUNNY   72  55  56 CALM      30.21
POZA RICA      CLOUDY    81  79  94 E7        29.99F
PUEBLA         CLOUDY    68  48  49 S5        30.31F
QUERETARO      PTSUNNY   73  52  46 NE9       30.28F
S. LUIS POTOSI CLOUDY    70  48  46 NE8       30.25F
TAMPICO        PTSUNNY   86  66  51 SE9       29.98F
TOLUCA         TSTM      52  46  82 SE18      30.36F VSB 1

SOUTHERN MEXICO

CITY           SKY/WX    TMP DP  RH WIND       PRES   REMARKS
ACAPULCO       CLOUDY    84  75  74 SE9       29.89F HX  92
B. DE HUATULCO MOSUNNY   82  72  69 CALM      29.94
OAXACA         CLOUDY    77  52  41 NE7       30.17F
P. ESCONDIDO   CLOUDY    79  75  89 W9        30.02S
VERACRUZ       MOSUNNY   88  70  55 E10       29.92F HX  92
ZIHUATANEJO    PTSUNNY   90  75  62 SW8       29.88F HX 100

YUCATAN PENINSULA

CITY           SKY/WX    TMP DP  RH WIND       PRES   REMARKS
CAMPECHE       MOSUNNY   95  63  34 SE9       29.87F HX  96
CANCUN         MOSUNNY   86  72  62 SE7       29.97S HX  92
CHETUMAL       PTSUNNY   86  75  70 E20       29.93F HX  95
CD. DEL CARMEN CLOUDY    90  70  51 E7        29.89F HX  95
COZUMEL        MOSUNNY   84  70  61 CALM      29.95F
MERIDA         PTSUNNY   99  66  34 E8        29.91F HX 102
MINATITLAN     MOSUNNY   86  68  54 N12       29.87F
TAPACHULA      CLOUDY    88  77  70 W12       29.88F HX 100
TUX. GUTIERREZ CLOUDY    88  61  40 NE7       29.92F
VILLAHERMOSA   PTSUNNY   95  73  49 CALM      29.90F HX 105

CENTRAL AMERICA

CITY           SKY/WX    TMP DP  RH WIND       PRES   REMARKS
BELIZE CITY    MOSUNNY   88  77  70 E9        29.92F HX 100
MANAGUA        MOCLDY    91  68  46 E9        29.77F HX  95

CARIBBEAN

CITY           SKY/WX    TMP DP  RH WIND       PRES   REMARKS
ARUBA          MOSUNNY   86  77  74 E23       29.83F HX  97
CURACAO        MOSUNNY   86  77  74 E10       29.86F HX  97
KINGSTON       MOSUNNY   86  75  70 SE26G39   29.89F HX  95
NASSAU         PTSUNNY   79  72  78 CALM      30.03F
SAN JUAN       PTSUNNY   81  79  94 E3        29.98S
SANTO DOMINGO  MOSUNNY   86  73  66 S5        29.94F HX  93
ST. CROIX      MOSUNNY   86  75  70 SE10      29.97  HX  95
ST. KITTS      MOSUNNY   88  73  62 NE12      29.94F HX  96
ST. MAARTEN    MOSUNNY   84  75  74 SE6       29.94F HX  92
ST. THOMAS     MOSUNNY   86  75  70 SE8       29.96  HX  95

$$




USA.gov is the U.S. government's official web portal to all federal, state and local government web resources and services.